Back to catalog

FENGYUN 1C DEB

AlivePO
NORAD 31177·DEBRIS·🇨🇳 China

Launched May 10, 1999 from Taiyuan Satellite Launch Center

Loading…

Next Passes (next 24 hours)

TLE

FreshSource: Space-Track

Epoch: Sep 14, 2026, 15:22 UTC

1 31177U 99025BJF 26257.64054096  .00002475  00000-0  23098-2 0  9992
2 31177  98.7560 148.9645 0303755 311.7141  74.5257 13.64043025699714

Track FENGYUN 1C DEB in real time with AllMySat

Download on the App Store